{"data":{"norad_id":64550,"intl_designator":"2025-135Y","name":"BRO-18","alt_names":[],"object_type":"PAYLOAD","status":"ACTIVE","operator":null,"country":"FR","launch_date":"2025-06-23","launch_site_code":"AFWTR","launch_vehicle":null,"mission":null,"orbit_class":"UNKNOWN","rcs_meters":null,"size_class":null,"mass_kg":null,"dimensions":null,"purposes":[],"wikipedia_slug":null,"has_3d_model":false,"image_url":null,"decayed_at":null,"tle_current":{"epoch":"2026-05-25T05:44:03.145056Z","epoch_age_seconds":50487,"freshness":"FRESH","line1":"1 64550U 25135Y   26145.23892529  .00006460  00000+0  28776-3 0  9992","line2":"2 64550  97.4601 260.4553 0001148  58.1325 302.0022 15.21784406 51386","mean_motion":15.21784406,"eccentricity":0.0001148,"inclination_deg":97.4601,"raan_deg":260.4553,"arg_perigee_deg":58.1325,"mean_anomaly_deg":302.0022,"bstar":0.00028776,"rev_number":5138,"period_min":94.625756074412,"perigee_km":499.66857981472,"apogee_km":501.24790528241,"semimajor_km":6878.5952425486,"source":"CELESTRAK","updated_at":"2026-05-25T13:38:04.612989Z"}}}